Dewpoint
53 53 53 53 53 53 53 53 53 53 54 54 54 55 55 56 55 48 41 35 38 40 50 44 39 44 47 49 59 64 55 53 54 45 43 53 54 54 53 51 56 55 56 57 59
53 53 53 53 53 53 54 53 53 53 54 54 54 54 55 56 50 41 39 47 42 45 29 44 39 48 49 55 60 60 57 54 57 57 52 48 52 53 53 51 54 56 56 58 58
53 54 53 53 53 53 52 53 53 53 54 54 54 54 55 55 45 39 54 50 39 36 24 38 40 43 50 57 58 61 56 59 56 57 61 50 52 54 52 53 55 54 54 56 53
54 54 54 53 53 53 53 53 53 53 53 54 54 54 55 52 34 43 47 44 44 30 18 30 35 35 52 54 57 56 59 58 59 62 60 53 53 52 53 53 55 55 55 54 51
54 54 54 54 54 53 53 53 53 53 53 53 54 54 52 44 37 47 54 51 41 22 17 32 38 35 49 55 55 56 57 61 61 59 60 54 52 53 53 53 53 53 52 52 51
55 55 54 54 54 54 54 53 53 53 53 53 53 55 50 30 42 48 53 52 30 16 29 34 38 33 36 51 53 57 58 61 60 63 63 55 54 52 53 54 54 53 51 51 51
55 55 55 54 54 54 54 54 53 53 53 53 54 52 41 33 32 45 42 39 33 17 28 33 38 33 30 35 55 58 56 58 62 62 60 56 52 51 53 54 53 53 52 51 51
56 55 55 55 54 54 53 53 52 53 54 54 55 51 37 34 27 29 33 25 18 18 25 32 32 30 27 40 50 52 55 52 59 61 59 56 49 54 55 53 53 52 52 51 52
56 55 55 55 54 54 53 53 53 54 56 55 53 47 38 27 19 22 25 31 17 16 20 28 31 26 26 28 38 54 50 50 55 61 61 54 51 54 54 52 51 51 51 51 51
55 55 55 55 54 53 52 52 51 53 55 51 47 42 40 29 24 19 19 32 28 25 23 25 29 27 28 29 38 47 48 51 52 56 56 55 53 56 57 51 50 50 51 51 50
54 54 55 54 53 53 50 44 48 48 46 42 37 33 25 26 28 29 30 28 29 25 24 27 26 26 28 34 39 51 52 50 54 56 54 55 54 56 59 58 56 51 51 50 50
54 54 55 54 53 53 51 37 37 31 29 33 39 33 17 21 25 28 26 23 26 23 21 21 21 21 23 40 48 50 48 51 53 53 51 52 55 57 58 58 58 58 57 53 50
53 54 54 53 52 49 41 35 34 33 30 32 33 21 16 19 18 27 24 20 17 16 15 16 18 19 18 46 44 49 49 50 49 53 53 52 54 54 56 59 59 58 59 59 56
53 54 52 51 47 42 38 38 39 33 30 29 21 20 20 19 18 20 25 23 19 15 14 12 14 15 16 42 44 45 51 51 50 48 44 53 46 53 55 54 56 58 57 58 58
53 53 52 50 44 36 33 33 32 33 26 20 22 25 25 19 22 19 25 24 22 19 15 10 8 9 12 20 48 50 52 50 48 48 48 49 48 51 55 52 52 54 56 58 59
52 52 52 47 49 42 38 35 33 29 25 19 21 22 22 21 21 24 25 24 23 21 21 15 12 10 13 24 46 51 50 51 50 49 42 46 48 49 51 49 50 54 56 58 60
51 51 50 47 38 39 35 34 29 30 29 20 15 20 20 20 19 23 24 24 22 20 19 19 12 10 12 36 49 49 48 42 41 39 38 45 46 47 52 55 53 54 55 57 60
51 50 49 47 42 38 35 32 31 34 26 14 14 16 15 22 23 21 21 20 22 21 20 19 13 10 19 18 42 48 42 38 35 38 41 48 45 45 52 54 56 56 56 58 60
50 46 46 42 46 43 33 32 32 29 15 12 13 19 24 26 26 21 21 19 18 19 18 20 17 20 18 21 21 31 34 38 40 43 40 46 48 51 53 54 54 56 57 57 59
48 43 39 40 37 36 32 30 31 19 14 9 10 16 25 25 28 27 26 26 24 24 20 19 19 24 24 18 21 21 29 27 36 36 35 44 45 46 46 51 53 54 54 54 56
47 37 38 39 35 33 28 30 30 14 11 9 10 14 22 29 27 32 32 29 29 26 27 26 24 22 26 21 19 20 24 27 34 33 34 38 41 45 47 49 52 52 53 54 55
45 35 34 31 27 28 27 29 29 14 11 11 9 10 16 28 26 34 33 35 33 28 29 30 27 24 25 22 21 20 18 19 19 25 32 31 45 53 52 52 51 53 55 56 55
44 38 39 33 25 22 30 29 17 9 14 8 10 11 20 31 31 36 33 34 35 30 29 29 28 25 23 24 23 17 17 17 17 16 16 25 42 51 53 52 51 56 57 57 56
45 36 37 35 32 23 27 27 24 17 16 14 15 15 17 29 34 38 38 37 35 30 31 30 26 25 24 26 27 27 20 16 17 14 14 17 44 48 46 43 60 63 64 64 58
44 37 37 32 27 23 26 20 17 12 15 12 16 18 22 29 38 39 37 37 37 35 29 28 24 25 28 31 27 26 26 21 14 17 18 41 44 51 55 56 59 61 62 63 63
42 40 44 41 36 21 20 12 15 14 15 13 16 20 24 30 32 35 37 38 34 34 34 31 27 36 34 39 38 34 29 29 26 14 42 51 52 56 57 57 58 58 59 61 62
49 49 45 42 37 22 19 20 19 17 14 17 17 20 25 32 34 36 39 37 37 37 32 33 37 37 35 37 37 32 36 35 40 43 36 41 49 53 51 48 50 58 58 60 62
Wind_Speed
11 11 12 12 12 12 12 12 12 13 14 15 15 15 16 17 20 4 9 12 11 14 4 7 10 17 20 16 6 6 5 6 6 13 18 23 13 10 17 20 20 11 22 20 26
12 12 12 12 12 13 13 12 12 13 14 14 15 17 17 17 7 13 16 12 9 12 5 11 16 18 16 8 6 6 5 10 10 6 4 22 16 15 14 16 25 26 23 24 19
12 13 12 13 13 12 13 13 12 13 14 14 15 16 17 17 6 6 6 22 12 11 10 17 20 16 14 5 6 4 2 6 9 20 17 13 19 7 21 17 30 31 27 24 26
13 13 13 13 13 13 13 14 13 13 13 13 14 15 16 4 1 3 9 14 10 7 8 11 15 18 10 11 5 6 17 13 5 21 9 20 19 13 18 22 33 31 29 25 24
13 13 13 14 13 13 13 13 14 13 12 12 12 13 7 3 12 11 14 11 9 7 14 17 16 16 12 8 5 9 9 18 20 28 20 13 18 13 13 35 29 24 18 28 24
13 13 13 14 14 14 14 13 13 13 12 11 11 14 3 6 4 19 16 9 12 13 13 20 13 16 11 9 12 1 9 15 18 10 16 23 16 10 9 32 29 26 21 19 22
14 14 14 14 14 14 14 14 14 13 12 10 9 7 6 18 9 16 18 9 16 14 15 22 24 17 12 14 6 7 7 12 13 9 6 25 17 16 22 27 29 25 22 19 21
16 16 16 16 15 14 15 15 15 14 12 8 6 4 9 9 13 21 12 15 16 17 21 24 17 16 13 8 3 3 1 6 11 7 9 10 13 21 26 24 26 23 19 20 24
16 16 16 17 16 15 16 18 17 13 9 6 3 4 10 3 7 15 16 15 20 18 22 23 18 15 16 14 14 3 3 8 9 5 8 1 14 12 26 29 26 22 18 21 21
16 16 16 17 18 17 20 19 9 10 5 8 10 9 10 5 12 9 20 17 14 17 18 17 4 6 13 14 14 10 7 3 9 11 19 4 11 3 8 19 24 23 19 21 26
18 18 17 17 17 16 14 4 2 1 5 10 8 9 19 6 6 2 7 12 14 8 13 7 9 15 20 23 24 11 13 11 11 11 10 14 12 6 12 12 6 18 14 17 24
18 19 19 18 17 11 7 4 9 13 13 23 27 21 12 10 4 9 12 9 9 15 13 14 19 22 23 11 16 13 8 10 15 13 9 13 7 2 3 3 3 6 6 6 23
19 19 19 21 21 6 8 14 18 21 9 14 18 10 12 8 14 11 11 13 11 15 15 18 20 24 24 12 10 11 5 11 9 10 1 2 7 5 4 4 5 6 5 4 4
19 19 20 28 7 9 12 22 22 11 5 8 7 4 5 7 10 16 17 16 13 16 19 14 26 21 22 15 8 7 9 14 16 11 5 5 3 6 13 18 12 10 11 3 4
19 18 18 7 14 7 12 22 9 8 5 3 6 5 4 6 10 17 18 13 19 18 10 16 19 21 19 18 20 8 21 8 11 14 11 4 7 5 9 20 25 25 18 8 8
20 19 19 3 5 18 23 25 16 5 5 6 9 9 10 12 19 14 12 10 14 19 22 19 17 16 13 3 29 33 25 13 7 3 7 16 10 11 23 40 44 27 19 14 5
24 20 9 7 7 13 22 10 5 6 7 6 2 13 14 10 13 13 11 13 11 7 12 15 17 18 17 17 31 27 21 6 1 1 6 10 10 19 25 24 25 28 20 16 9
29 27 10 13 12 13 14 9 4 11 12 13 9 9 4 5 7 14 10 10 18 20 18 13 13 16 5 7 23 27 21 12 6 6 3 4 4 9 21 29 20 25 20 15 16
32 3 5 10 19 10 5 5 4 17 13 13 17 7 5 15 16 1 6 15 17 21 19 8 7 7 15 17 17 13 12 18 10 3 7 2 3 17 3 9 18 20 20 22 17
10 7 13 17 17 12 6 12 16 1 13 10 15 14 5 10 8 16 8 6 4 9 22 21 16 11 11 19 15 11 8 8 6 7 4 8 3 10 5 9 17 18 22 29 24
4 4 12 18 18 9 13 16 15 4 6 4 14 13 5 4 1 7 12 13 20 18 13 8 5 19 16 10 11 11 9 10 9 8 7 10 8 13 16 8 14 19 24 25 26
7 5 6 12 11 10 16 19 5 13 6 7 9 14 11 4 2 4 4 11 24 19 11 13 4 12 16 3 16 10 13 17 10 5 7 9 8 9 23 35 28 25 27 30 33
6 9 16 9 13 15 9 17 10 4 8 6 9 16 16 6 4 8 3 10 18 16 7 11 6 7 8 8 1 13 15 14 12 11 15 5 8 21 26 27 27 26 31 29 24
6 5 9 10 14 16 19 17 13 7 3 4 5 13 12 8 14 8 12 10 23 16 3 3 3 8 7 6 16 14 14 17 12 16 16 13 15 19 17 3 7 17 17 17 30
5 8 15 6 13 21 21 7 9 4 4 4 2 8 10 4 8 3 4 12 17 6 4 4 8 13 12 15 13 19 19 13 19 14 7 9 15 10 5 11 16 15 17 20 18
5 7 9 21 20 8 12 1 10 4 6 8 12 16 16 9 8 10 7 10 9 12 16 9 11 3 6 18 18 9 14 17 18 19 17 30 15 8 15 22 15 10 10 13 14
7 7 6 13 13 5 11 3 4 8 5 2 5 8 9 7 9 18 25 11 5 7 9 6 4 7 1 19 16 9 18 24 13 36 3 15 15 21 13 16 16 19 12 12 19
Wind_Direction
333 329 327 326 324 322 319 317 313 311 312 314 317 319 322 323 313 239 251 231 205 216 189 259 218 241 242 241 125 118 99 140 246 164 152 123 189 148 147 141 138 125 140 154 135
332 328 325 322 320 318 318 316 312 310 311 313 315 318 323 326 301 260 233 224 143 163 199 222 213 230 239 202 162 179 126 184 258 285 210 171 130 133 141 156 117 126 135 162 156
333 330 325 321 317 315 312 312 311 312 312 313 316 319 322 322 293 253 287 206 189 178 236 237 247 226 222 184 209 162 66 239 229 265 280 192 137 131 140 143 138 144 154 165 141
335 331 326 320 318 316 316 314 313 312 312 315 317 320 315 291 61 123 139 161 190 200 226 260 266 258 216 215 241 246 162 148 256 246 264 159 149 160 173 163 144 155 160 148 144
338 332 325 318 317 317 316 316 314 312 311 314 318 324 339 237 254 165 163 167 171 182 218 227 254 251 205 177 253 223 199 163 190 235 237 176 157 147 130 127 135 139 144 151 155
336 335 330 320 316 313 311 312 311 309 309 311 318 318 254 261 149 158 170 160 201 182 221 237 249 249 277 217 197 224 251 133 162 206 246 205 136 105 140 131 136 145 161 170 158
336 334 330 324 317 314 310 308 307 303 302 303 312 303 261 245 307 170 150 181 212 191 223 238 251 267 279 270 115 234 212 111 139 200 267 109 136 133 135 142 145 162 175 157 144
338 336 330 322 321 314 306 303 299 293 291 285 297 286 257 242 267 253 209 184 198 217 227 253 253 273 284 293 272 210 115 174 133 170 305 210 122 156 143 159 154 168 177 156 135
333 331 329 322 320 310 304 299 292 288 272 252 258 211 270 266 236 230 263 220 193 225 231 250 243 238 272 273 265 136 243 200 131 89 298 100 138 124 179 159 163 173 166 137 130
332 331 329 324 323 319 309 287 278 309 223 215 262 286 267 272 214 207 233 235 213 206 227 246 327 244 257 265 245 222 216 222 73 34 334 185 149 50 59 167 171 172 161 143 135
333 330 329 325 323 327 337 307 286 293 235 222 240 229 290 100 12 327 189 235 255 220 226 202 229 240 231 238 243 139 126 110 96 48 20 332 149 157 24 60 20 168 127 153 148
333 329 327 323 320 322 303 256 260 314 310 291 241 240 281 298 256 230 241 208 207 224 216 233 218 241 246 256 105 92 121 84 72 27 19 326 220 211 341 32 40 32 58 175 149
331 331 329 324 315 290 224 253 282 295 293 285 222 237 219 208 268 213 198 226 215 234 233 222 242 225 247 166 121 110 90 135 133 164 139 234 246 216 217 246 264 316 295 4 125
331 331 335 329 322 325 275 260 248 294 291 216 205 163 169 188 248 253 179 226 240 220 228 246 249 255 237 187 158 152 113 141 159 163 116 33 222 232 238 252 228 236 235 234 249
327 324 322 336 303 294 273 318 330 292 312 126 134 119 291 185 267 215 170 229 260 274 244 238 253 258 265 234 112 139 131 147 127 86 107 259 271 234 193 237 233 212 210 206 255
324 318 328 43 220 251 290 294 299 247 266 146 150 186 179 225 268 146 168 204 264 279 291 266 270 272 269 267 118 126 114 88 83 77 103 197 217 198 196 204 210 215 196 194 210
318 306 300 294 245 315 312 276 256 245 269 338 27 181 205 215 236 155 185 193 234 253 272 289 264 276 272 117 130 126 130 129 237 79 222 201 212 239 229 225 221 208 213 184 181
318 308 249 219 243 292 311 303 258 261 297 13 354 286 285 147 243 183 190 206 219 254 280 260 248 246 246 265 156 156 164 156 199 160 17 85 225 260 276 212 205 206 199 183 177
317 296 250 240 220 237 275 274 236 311 21 351 325 277 42 337 353 307 209 202 226 224 247 297 252 299 207 223 235 214 199 184 108 121 93 104 277 301 93 154 184 181 172 195 192
314 294 260 248 189 203 252 262 277 50 24 333 317 349 62 315 327 348 356 53 327 306 222 256 285 287 299 215 216 226 191 264 106 163 153 104 11 269 245 178 177 176 200 196 189
231 268 261 217 186 222 248 270 309 74 104 335 324 337 25 261 333 35 337 16 15 339 337 1 321 286 310 196 186 245 228 230 184 171 172 141 200 188 219 222 217 204 201 201 201
305 265 164 170 189 227 247 283 255 279 2 15 335 316 296 77 21 108 12 355 338 339 354 21 314 302 301 222 180 221 238 244 248 223 197 188 148 184 175 197 202 207 203 205 204
299 283 287 197 237 249 235 245 244 301 30 355 339 328 347 57 54 13 358 325 319 333 15 356 357 334 318 336 229 203 260 273 262 283 283 223 169 195 199 192 186 194 192 208 200
286 286 243 203 239 267 273 268 264 133 190 90 341 311 311 67 63 46 5 324 318 300 345 321 264 267 294 258 285 297 249 262 276 262 272 290 153 186 209 138 70 84 77 59 198
245 258 326 277 228 235 257 293 354 327 101 14 205 312 310 137 69 89 358 345 323 324 316 273 268 285 313 327 290 309 305 279 259 272 277 138 149 136 85 82 78 68 74 72 107
279 346 332 305 303 339 226 215 254 346 58 349 351 353 358 84 121 199 190 185 239 308 307 300 298 352 14 354 358 320 322 351 308 261 124 120 111 125 112 95 85 75 85 107 112
343 325 304 281 306 214 266 179 65 61 355 239 11 338 1 85 163 183 191 195 235 208 306 319 45 24 356 349 330 72 356 1 30 32 22 126 156 162 142 147 155 151 155 138 132